Temperature
8 7 7 8 8 7 7 8 8 9 9 10 9 8 8 7 6 6 6 6 5 5 6 6 6 7 7 7 7 7 8 8 8 8 8 8 8 8 8 8 8 8 8 8
7 6 7 7 7 8 8 8 8 9 9 9 8 7 7 6 6 6 5 5 5 5 5 5 5 6 6 6 7 7 7 7 7 7 7 7 7 7 7 7 7 7 7 7
8 6 6 7 8 8 7 8 8 8 9 8 7 7 6 6 5 5 4 4 4 4 4 4 4 5 5 6 6 6 6 7 7 7 7 7 7 7 7 6 6 6 6 6
7 6 6 9 7 7 7 7 7 7 8 7 7 6 5 5 5 4 4 4 4 4 4 4 4 4 5 5 5 5 6 6 6 6 6 6 6 6 6 6 6 6 6 5
7 7 8 8 6 6 7 7 7 7 7 6 5 5 5 4 4 4 3 3 3 3 3 4 4 4 4 4 5 5 5 5 5 5 5 5 5 5 5 5 5 5 5 5
6 7 8 9 7 5 7 7 7 6 6 5 5 6 7 4 3 3 3 3 3 3 3 3 3 3 4 4 4 4 4 4 4 4 4 4 4 4 4 4 4 4 4 4
6 6 8 8 5 5 7 9 6 5 5 5 5 5 4 3 3 3 3 2 2 2 3 3 3 3 3 3 3 3 3 4 4 4 4 4 4 4 4 3 4 4 4 4
6 6 7 6 5 6 8 5 4 4 4 4 3 3 3 3 2 2 2 2 2 2 2 2 3 3 3 3 3 3 3 3 3 3 3 3 3 3 3 3 3 3 3 3
7 8 6 5 6 5 5 4 4 4 3 3 3 3 2 2 2 2 2 2 2 2 2 2 2 2 2 2 2 2 2 3 3 3 3 3 3 3 2 2 2 2 2 2
5 6 5 4 4 4 4 4 4 4 3 3 2 2 2 2 2 2 1 1 1 1 1 2 2 2 2 2 2 2 2 2 2 2 2 2 2 2 2 2 2 2 2 2
5 5 4 3 4 4 4 4 3 3 3 2 2 2 2 1 1 1 1 1 1 1 1 1 1 1 1 1 1 2 2 2 2 2 1 1 1 1 1 1 1 2 2 2
7 6 6 5 5 4 4 3 3 3 2 2 2 1 1 1 1 1 1 1 1 1 1 1 1 1 1 1 1 1 1 1 1 1 1 1 1 1 1 1 1 1 1 1
6 5 5 5 5 4 4 3 3 3 2 2 1 1 1 1 0 0 0 0 0 0 0 0 0 1 0 1 1 1 1 0 0 0 0 0 0 0 0 1 1 1 1 1
4 4 3 4 4 4 3 3 3 2 2 1 1 1 1 0 0 -0 -0 -0 -0 0 -0 -0 0 0 0 0 0 0 0 0 -0 -0 -0 -0 -0 -0 -0 0 0 0 0 -0
4 4 4 4 4 3 3 2 2 2 1 1 1 1 0 0 -0 -0 -0 -0 -0 -0 -0 -0 -0 -0 -0 -0 -0 -0 -0 -0 -0 -0 -1 -1 -1 -1 -1 -1 -1 -1 -1 -1
3 3 3 3 3 3 2 2 1 1 1 1 0 0 0 -0 -0 -0 -1 -1 -1 -1 -1 -1 -1 -1 -1 -1 -1 -1 -1 -1 -1 -1 -1 -1 -1 -1 -1 -1 -1 -1 -1 -1
2 1 2 2 2 2 2 2 1 1 1 0 0 -0 -0 -0 -1 -1 -1 -1 -1 -1 -1 -1 -1 -1 -1 -1 -1 -1 -1 -1 -1 -2 -2 -2 -2 -2 -2 -2 -2 -2 -2 -2
4 4 4 3 3 2 2 1 1 1 0 0 -0 -0 -1 -1 -1 -1 -1 -1 -2 -2 -2 -2 -2 -2 -2 -2 -2 -2 -2 -2 -2 -2 -2 -2 -3 -3 -3 -3 -2 -2 -2 -2
3 3 3 3 2 2 2 1 1 0 0 -0 -1 -1 -1 -1 -1 -2 -2 -2 -2 -2 -2 -2 -2 -2 -2 -2 -2 -2 -2 -2 -2 -3 -3 -3 -3 -3 -3 -3 -3 -3 -3 -3
2 2 2 2 2 2 1 1 0 -0 -0 -1 -1 -1 -1 -1 -2 -2 -2 -2 -2 -2 -2 -2 -3 -3 -3 -3 -3 -3 -3 -3 -3 -3 -3 -3 -3 -4 -4 -4 -4 -4 -4 -4
2 2 2 1 1 1 1 0 0 -0 -0 -1 -1 -1 -2 -2 -2 -2 -2 -2 -2 -3 -3 -3 -3 -3 -3 -3 -3 -3 -3 -3 -4 -4 -4 -4 -4 -4 -4 -4 -4 -4 -4 -4
1 1 1 1 1 1 0 -0 -0 -0 -1 -1 -1 -2 -2 -2 -2 -2 -2 -3 -3 -3 -3 -3 -3 -3 -3 -4 -4 -4 -4 -4 -4 -4 -4 -4 -4 -5 -5 -5 -5 -5 -5 -5
1 1 1 0 0 0 -0 -0 -1 -1 -1 -1 -1 -2 -2 -2 -2 -3 -3 -3 -3 -3 -3 -3 -3 -4 -4 -4 -4 -4 -4 -4 -5 -5 -5 -5 -5 -5 -5 -5 -5 -5 -6 -6
1 1 0 0 -0 -0 -1 -1 -1 -1 -1 -1 -2 -2 -2 -2 -3 -3 -3 -3 -3 -3 -3 -4 -4 -4 -4 -4 -4 -4 -5 -5 -5 -5 -5 -5 -5 -5 -6 -6 -6 -6 -6 -6
0 0 0 -0 -0 -1 -1 -1 -1 -2 -2 -2 -2 -2 -2 -3 -3 -3 -3 -3 -3 -3 -4 -4 -4 -4 -5 -5 -5 -5 -5 -5 -5 -6 -6 -6 -6 -6 -6 -6 -6 -6 -6 -6
0 -0 -0 -0 -1 -1 -1 -2 -2 -2 -2 -2 -2 -2 -3 -3 -3 -3 -3 -3 -4 -4 -4 -4 -4 -5 -5 -5 -5 -5 -6 -6 -6 -6 -6 -6 -6 -6 -6 -6 -7 -7 -7 -7
-0 -1 -1 -1 -1 -2 -2 -2 -2 -2 -2 -2 -2 -3 -3 -3 -3 -3 -4 -4 -4 -4 -5 -5 -5 -5 -5 -5 -6 -6 -6 -6 -6 -6 -7 -7 -7 -7 -7 -7 -7 -7 -7 -7
Wind_Speed
1 1 2 4 6 7 8 8 6 6 7 7 4 4 4 4 5 7 8 8 8 9 9 9 9 9 8 8 7 6 5 4 4 4 3 3 3 4 4 5 5 6 7 7
1 1 2 5 8 9 9 9 10 10 9 4 3 3 3 4 5 7 8 8 9 9 10 10 10 10 9 9 8 7 5 5 4 3 3 3 3 4 4 5 5 6 6 7
2 1 3 7 9 11 8 8 8 9 6 2 3 3 4 5 6 6 7 8 9 9 9 9 10 10 10 9 8 7 6 5 4 3 3 3 3 4 5 5 5 6 6 6
1 1 5 1 1 5 8 9 9 7 5 4 5 4 4 4 4 5 7 9 9 9 10 10 9 9 9 8 8 7 6 6 4 4 3 3 3 4 5 5 5 5 6 6
2 3 6 3 4 5 6 5 7 8 6 4 3 3 3 1 4 6 8 8 9 9 9 9 9 9 9 8 7 7 6 6 5 4 4 3 4 4 4 5 5 5 6 7
3 4 5 2 5 4 3 4 5 6 5 3 2 4 3 3 6 7 8 8 8 8 8 8 8 8 8 8 7 7 7 7 6 4 4 4 4 4 4 4 5 5 5 6
6 6 6 3 6 7 5 1 4 4 4 4 4 4 4 5 6 7 7 8 8 8 7 7 7 7 7 7 7 8 7 6 5 4 4 3 3 3 4 4 4 4 5 5
7 7 7 8 9 7 2 3 4 3 4 4 4 4 4 5 6 6 7 7 7 7 7 7 7 7 7 7 7 7 6 5 4 3 2 2 3 3 4 5 5 5 5 5
8 6 1 8 6 3 3 3 3 3 3 4 4 5 5 5 6 6 6 7 7 7 7 7 7 7 7 7 7 6 6 5 4 3 2 2 3 4 4 5 5 5 5 5
6 8 6 7 6 5 4 4 3 3 3 4 5 5 5 5 5 5 6 6 6 6 7 7 8 7 7 7 6 6 5 5 4 2 2 2 2 3 4 5 5 5 5 5
7 5 4 8 10 9 6 5 4 3 3 4 5 5 5 5 5 5 5 6 5 6 6 8 8 7 7 6 6 5 5 4 4 3 2 2 2 3 4 5 5 5 5 5
8 8 7 7 9 9 9 7 6 5 4 4 4 5 4 4 4 4 5 5 5 6 6 7 7 7 7 6 6 5 4 4 3 2 2 1 1 1 2 4 5 6 5 5
4 5 5 4 6 8 8 7 7 6 5 4 4 4 4 4 4 4 4 5 5 6 6 6 6 6 7 6 5 5 4 4 3 2 2 2 1 1 1 1 3 4 6 6
6 6 4 5 6 7 7 6 5 5 4 4 3 3 3 3 3 4 4 5 5 5 6 6 6 6 7 6 6 5 4 3 3 3 2 2 2 2 2 2 1 1 3 5
10 8 6 6 6 7 6 6 5 5 4 3 3 3 3 3 4 4 4 4 4 5 5 5 6 7 7 6 6 5 4 3 3 3 2 2 2 2 1 2 2 1 1 2
10 8 7 8 9 8 7 7 7 6 5 4 4 3 4 4 4 4 3 3 4 5 5 5 6 6 6 6 5 4 4 4 3 3 2 2 2 2 2 2 2 2 2 2
12 10 10 10 10 10 9 8 8 6 5 5 4 4 3 3 3 3 3 3 3 4 4 5 6 6 5 5 5 4 4 3 3 3 2 2 2 2 2 2 2 2 2 2
12 12 12 11 10 10 9 8 7 6 6 5 3 3 3 4 4 4 3 3 3 4 4 4 5 5 5 5 4 4 3 3 3 3 3 2 2 2 2 2 2 2 1 2
10 9 9 9 9 9 8 7 7 6 5 4 4 4 4 4 4 4 3 3 3 4 4 4 6 5 5 5 4 3 3 3 3 3 3 3 3 2 2 2 2 2 2 1
9 9 9 8 8 7 7 7 6 5 5 4 4 4 4 4 4 3 3 4 3 3 4 4 5 4 4 4 4 3 3 3 3 3 3 2 2 2 2 2 2 2 2 2
10 10 9 8 7 7 6 6 6 6 5 5 5 5 5 4 3 3 3 4 3 3 3 4 3 4 4 4 4 3 3 3 3 3 3 2 2 2 2 2 2 2 2 2
9 9 9 8 7 6 5 5 6 5 5 5 5 4 4 4 3 4 4 4 3 3 3 3 3 4 5 4 3 3 3 3 3 3 2 2 2 2 2 2 2 2 2 2
8 8 8 8 7 6 5 5 6 5 5 5 5 5 5 4 3 3 4 3 3 4 3 3 4 6 6 3 2 2 3 3 3 3 3 3 3 3 3 3 3 3 3 3
8 8 7 6 6 6 5 5 5 4 5 5 5 5 4 4 3 4 3 3 4 4 4 4 5 5 5 3 3 3 3 3 3 3 3 3 3 3 3 3 3 3 3 3
7 7 7 7 7 5 5 4 4 4 4 3 4 4 4 4 4 3 3 3 4 4 4 4 5 5 3 3 3 3 3 3 3 3 3 3 3 3 3 3 3 4 4 4
6 6 6 6 5 4 4 4 4 4 3 3 3 3 3 2 3 3 2 3 3 4 4 3 3 3 3 3 3 3 3 4 4 3 3 4 4 4 4 4 5 4 4 4
5 4 4 4 4 4 4 4 4 4 4 4 3 3 2 2 2 2 2 2 3 3 3 3 3 3 3 3 3 3 3 3 3 3 3 4 4 4 4 5 4 4 4 5
Wind_Direction
286 307 224 233 224 213 216 223 230 244 253 269 291 301 312 332 346 349 350 355 355 350 347 345 345 346 344 339 336 327 316 304 294 292 274 237 207 191 181 174 167 164 163 161
236 282 268 260 242 230 230 235 240 255 269 280 281 289 303 318 330 335 341 345 345 344 342 341 340 341 338 337 333 322 308 298 292 285 270 232 202 183 174 173 167 161 165 162
224 312 286 257 233 217 216 218 223 240 255 272 278 285 300 308 317 325 332 335 336 337 336 333 332 332 331 328 326 319 310 303 293 276 258 233 202 185 179 175 169 166 166 167
211 229 238 221 98 211 221 232 228 240 255 267 280 287 291 295 310 323 328 328 328 329 329 327 325 326 325 323 322 320 314 309 301 285 264 232 205 195 190 181 177 174 171 171
205 246 268 245 199 188 204 237 221 228 245 273 306 290 276 299 330 322 320 320 319 320 319 319 321 325 324 323 323 320 316 312 302 286 264 237 217 204 198 188 181 179 176 174
195 234 246 187 150 162 183 240 189 207 227 234 253 268 289 320 322 321 319 319 320 320 318 317 320 324 321 320 321 321 318 311 303 287 265 248 230 212 202 192 187 177 177 180
214 239 263 178 147 158 201 213 149 193 207 207 232 272 306 305 310 314 316 319 321 319 319 319 322 322 317 317 318 317 313 307 299 286 267 249 228 207 194 188 182 179 177 182
198 219 242 154 158 195 214 105 158 189 209 225 250 281 292 297 304 309 316 322 325 324 324 325 326 323 316 316 319 318 315 310 305 293 271 233 206 192 187 184 182 182 182 183
206 216 91 169 190 182 146 172 184 197 221 228 246 268 285 293 298 306 315 322 327 325 323 328 332 327 317 319 320 317 316 316 313 302 278 232 206 189 185 188 189 189 190 193
237 241 222 210 207 195 191 197 196 206 216 224 247 263 276 288 296 305 314 319 324 324 326 329 332 331 324 323 322 319 318 320 321 311 290 245 216 199 197 196 196 197 198 200
237 240 222 224 214 207 201 200 201 212 225 231 245 261 272 282 292 302 310 314 321 324 324 325 328 328 330 330 326 322 323 324 320 312 294 271 243 225 216 218 216 207 204 200
216 200 193 199 191 192 195 203 207 211 224 237 243 257 267 277 288 297 305 313 317 320 320 323 326 326 331 333 327 323 324 325 323 320 315 298 270 266 249 239 233 230 222 212
209 171 180 167 171 181 195 202 204 208 213 227 244 254 258 272 281 292 301 307 311 314 316 320 322 325 331 333 328 322 320 322 321 315 309 299 283 259 266 262 231 227 221 219
188 158 173 186 188 188 190 189 193 202 210 219 230 244 253 268 279 287 294 303 309 312 317 321 323 326 332 333 329 324 323 323 321 315 308 300 291 275 255 241 238 254 236 229
200 201 193 174 170 175 176 174 184 199 207 217 225 236 248 262 271 279 291 302 309 311 317 322 323 326 333 333 331 325 324 326 324 319 313 307 300 287 270 258 247 247 255 237
189 189 184 184 185 182 180 188 200 209 211 218 231 243 253 261 266 276 288 299 303 305 314 318 317 323 329 329 327 323 322 327 327 319 316 313 304 291 278 267 253 238 236 235
176 190 194 197 198 196 198 203 208 210 211 218 232 245 253 263 271 279 288 293 292 296 306 309 312 319 324 325 322 318 319 320 322 314 307 301 295 284 276 269 260 251 249 238
198 198 193 193 194 196 201 204 207 208 210 217 221 229 239 248 259 273 286 298 299 301 303 308 314 317 318 322 321 315 312 313 316 314 311 308 306 297 285 274 268 267 275 260
195 189 189 189 189 190 193 196 201 204 204 201 205 220 234 247 260 272 282 286 289 297 309 316 318 313 311 314 318 309 306 308 311 314 314 315 312 308 303 294 288 283 274 265
182 178 178 178 179 183 188 191 192 195 198 198 208 223 237 249 258 266 268 269 271 286 303 310 311 308 309 310 313 305 306 307 308 311 313 312 312 314 315 311 305 299 292 280
176 173 173 175 178 183 187 187 189 195 196 197 207 223 237 247 250 254 261 273 286 300 303 303 307 310 310 311 301 300 303 304 304 304 305 304 307 311 311 308 305 301 298 294
173 173 175 176 178 185 189 190 193 194 194 201 214 225 234 242 247 252 252 260 281 293 296 292 297 307 312 306 294 293 296 298 298 297 295 295 295 295 297 298 295 294 293 290
171 172 173 177 180 180 181 190 194 195 200 208 215 222 230 238 239 242 258 256 267 276 281 279 295 304 307 299 293 293 292 293 294 293 292 290 286 284 285 288 289 290 287 285
169 168 167 165 164 175 190 196 195 202 208 216 219 223 228 236 244 241 255 268 273 280 279 285 295 298 299 289 285 286 287 288 288 289 288 283 279 279 280 282 284 285 283 282
166 162 162 167 181 194 196 188 192 203 209 220 228 230 229 230 238 251 258 264 273 280 281 286 291 292 285 278 277 278 279 279 281 283 281 280 278 275 275 276 278 280 280 279
174 177 181 188 190 189 185 188 200 204 208 220 231 233 234 236 241 248 257 264 269 275 276 275 277 277 272 272 273 276 276 280 280 277 277 279 280 278 275 275 276 273 273 272
166 173 175 184 192 190 190 196 203 207 208 216 232 231 235 240 242 249 260 267 271 274 274 274 273 270 270 271 273 274 275 275 275 275 276 276 277 278 280 279 277 275 273 271
Height
1482 1484 1484 1483 1483 1484 1485 1481 1481 1475 1475 1475 1479 1481 1481 1481 1480 1478 1476 1474 1473 1470 1468 1466 1464 1462 1460 1459 1458 1456 1455 1454 1453 1453 1452 1452 1453 1453 1453 1454 1455 1457 1459 1460
1484 1486 1485 1484 1481 1481 1481 1480 1478 1477 1476 1477 1480 1481 1480 1480 1479 1477 1476 1474 1472 1470 1467 1465 1463 1460 1459 1457 1455 1454 1452 1451 1450 1450 1449 1449 1449 1449 1450 1451 1452 1453 1455 1456
1480 1486 1485 1479 1474 1476 1477 1476 1476 1475 1474 1477 1479 1479 1479 1479 1478 1477 1475 1473 1471 1468 1466 1464 1461 1459 1456 1454 1453 1451 1450 1448 1447 1446 1445 1445 1445 1445 1446 1447 1448 1449 1451 1452
1482 1486 1484 1470 1475 1474 1474 1474 1475 1475 1475 1477 1478 1478 1478 1477 1476 1475 1474 1471 1469 1467 1464 1462 1459 1457 1454 1452 1450 1449 1447 1445 1444 1442 1442 1441 1441 1442 1443 1444 1445 1446 1447 1449
1483 1478 1470 1471 1474 1475 1474 1472 1473 1474 1475 1477 1477 1477 1475 1475 1475 1474 1472 1470 1467 1465 1462 1460 1457 1455 1452 1450 1448 1446 1444 1442 1440 1439 1438 1438 1438 1439 1440 1441 1442 1443 1445 1446
1483 1479 1469 1463 1471 1473 1475 1469 1470 1472 1473 1475 1476 1473 1472 1473 1472 1471 1469 1467 1465 1462 1459 1457 1455 1452 1450 1447 1445 1443 1441 1439 1438 1436 1436 1435 1435 1436 1437 1438 1439 1440 1441 1443
1479 1476 1463 1466 1471 1474 1471 1463 1469 1470 1471 1473 1473 1473 1472 1471 1470 1469 1467 1464 1462 1459 1457 1454 1452 1450 1447 1445 1443 1440 1438 1436 1435 1434 1433 1433 1433 1433 1434 1435 1436 1437 1438 1440
1473 1474 1465 1465 1469 1468 1464 1466 1467 1468 1470 1471 1471 1470 1469 1469 1467 1466 1464 1462 1459 1457 1454 1452 1449 1447 1445 1442 1440 1437 1435 1433 1432 1431 1430 1430 1430 1430 1431 1432 1432 1433 1435 1436
1462 1460 1460 1462 1462 1463 1464 1465 1466 1467 1468 1468 1468 1468 1467 1466 1464 1463 1461 1459 1457 1455 1452 1450 1447 1445 1442 1439 1437 1435 1433 1431 1429 1428 1427 1427 1427 1427 1427 1428 1429 1430 1432 1433
1462 1458 1459 1460 1461 1461 1462 1464 1464 1465 1466 1465 1465 1465 1464 1463 1462 1460 1458 1457 1454 1452 1450 1447 1444 1442 1439 1437 1434 1432 1430 1428 1426 1425 1424 1424 1424 1424 1424 1425 1426 1427 1428 1430
1457 1455 1457 1456 1457 1458 1460 1461 1462 1463 1463 1463 1463 1462 1461 1460 1459 1457 1456 1454 1452 1450 1447 1445 1442 1439 1437 1435 1432 1430 1427 1425 1424 1423 1422 1421 1421 1421 1421 1422 1423 1424 1425 1426
1446 1447 1449 1450 1452 1454 1456 1457 1459 1460 1460 1460 1460 1459 1458 1457 1456 1455 1453 1451 1450 1448 1445 1443 1440 1438 1435 1433 1430 1428 1426 1424 1422 1421 1420 1419 1418 1419 1419 1420 1420 1421 1422 1423
1442 1443 1445 1447 1449 1451 1453 1454 1455 1456 1457 1457 1456 1456 1455 1454 1453 1452 1450 1449 1447 1445 1443 1441 1438 1436 1434 1431 1429 1426 1424 1422 1421 1419 1418 1417 1417 1416 1416 1417 1417 1418 1419 1419
1439 1442 1443 1444 1446 1448 1450 1451 1452 1453 1454 1454 1454 1453 1452 1451 1450 1449 1448 1446 1444 1443 1441 1438 1436 1434 1432 1429 1427 1425 1423 1421 1419 1418 1417 1416 1415 1414 1414 1414 1414 1415 1416 1416
1436 1438 1440 1441 1443 1445 1446 1447 1449 1449 1450 1450 1450 1450 1449 1448 1447 1446 1445 1443 1442 1440 1438 1436 1434 1432 1430 1427 1425 1423 1421 1419 1418 1416 1415 1414 1413 1412 1412 1412 1412 1412 1412 1413
1431 1434 1436 1438 1439 1441 1442 1443 1445 1445 1446 1446 1447 1446 1446 1445 1444 1443 1442 1441 1439 1437 1436 1434 1432 1430 1428 1426 1424 1422 1420 1418 1416 1415 1413 1412 1411 1410 1410 1409 1409 1409 1409 1410
1426 1428 1430 1433 1434 1436 1438 1439 1440 1441 1442 1443 1443 1443 1442 1442 1441 1440 1439 1438 1436 1435 1433 1431 1429 1428 1426 1424 1422 1420 1418 1416 1415 1413 1412 1410 1409 1408 1408 1407 1407 1406 1407 1407
1419 1422 1425 1427 1429 1432 1434 1435 1437 1438 1438 1439 1439 1439 1439 1438 1437 1437 1436 1435 1433 1432 1430 1429 1427 1425 1423 1421 1419 1418 1416 1414 1413 1411 1410 1409 1407 1407 1406 1405 1404 1404 1404 1404
1415 1419 1421 1424 1426 1428 1430 1431 1432 1433 1434 1435 1435 1435 1435 1435 1434 1433 1433 1431 1430 1429 1427 1426 1424 1422 1421 1419 1417 1415 1414 1412 1411 1409 1408 1406 1405 1404 1403 1403 1402 1402 1401 1401
1412 1415 1418 1420 1422 1424 1426 1427 1429 1429 1430 1430 1431 1431 1431 1431 1431 1430 1429 1428 1427 1426 1425 1423 1421 1420 1418 1416 1414 1413 1411 1410 1408 1407 1406 1404 1403 1402 1401 1400 1400 1399 1399 1398
1408 1411 1414 1416 1419 1421 1422 1424 1425 1425 1426 1427 1427 1427 1427 1427 1427 1426 1425 1425 1424 1423 1421 1420 1418 1417 1415 1414 1412 1410 1409 1407 1406 1405 1403 1402 1401 1400 1399 1398 1397 1396 1396 1395
1405 1408 1411 1413 1415 1417 1419 1420 1421 1422 1422 1423 1423 1424 1423 1423 1423 1423 1422 1422 1421 1419 1418 1417 1415 1414 1412 1411 1409 1408 1406 1405 1403 1402 1401 1400 1399 1398 1397 1396 1395 1394 1393 1392
1403 1406 1408 1410 1412 1414 1415 1417 1417 1418 1419 1419 1420 1420 1420 1420 1419 1419 1419 1418 1417 1416 1415 1414 1412 1411 1410 1408 1406 1405 1403 1402 1401 1399 1398 1397 1396 1395 1394 1393 1392 1391 1390 1389
1401 1403 1406 1408 1410 1411 1412 1413 1414 1415 1415 1416 1416 1416 1416 1416 1416 1416 1415 1414 1413 1412 1411 1410 1409 1408 1406 1405 1403 1402 1400 1399 1398 1396 1395 1394 1393 1392 1391 1390 1389 1388 1387 1386
1399 1401 1403 1405 1406 1407 1409 1410 1411 1411 1412 1412 1412 1412 1412 1412 1412 1412 1411 1410 1410 1409 1407 1406 1405 1404 1403 1401 1400 1398 1397 1395 1394 1393 1392 1390 1389 1388 1387 1386 1385 1384 1383 1382
1397 1399 1400 1402 1403 1404 1405 1406 1407 1407 1408 1408 1408 1408 1408 1408 1408 1407 1407 1406 1405 1404 1403 1402 1401 1400 1398 1397 1396 1394 1393 1392 1390 1389 1388 1387 1386 1384 1383 1382 1381 1380 1379 1378
1395 1396 1397 1399 1400 1401 1402 1403 1403 1404 1404 1404 1404 1404 1404 1404 1403 1403 1402 1402 1401 1400 1399 1398 1397 1395 1394 1393 1391 1390 1389 1388 1387 1385 1384 1383 1382 1381 1379 1378 1377 1376 1375 1374